Flag for Austria Weather past 2 weeks in Bad Radkersburg, Styria, Austria

Now
54 °F

Light rain. Overcast.


Feels Like: 54 °F
Forecast: 56 / 61 °F
Wind: 3 mph from Northwest

Location: Murska Sobota

Current Time: Sep 1, 2014 at 11:02:24 AM

Latest Report: Sep 1, 2014 at 10:00 AM


Visibility: 1 mi

Pressure: 29.87 "Hg

Humidity: 98%

Dew point: 54 °F

Location of Bad RadkersburgLocation

Historic Weather in Bad Radkersburg — Graph

°F

Bad Radkersburg temperature yesterday

Maximum temperature yesterday: 75 °F (at 4:00 PM)
Minimum temperature yesterday: 59 °F (at 11:00 PM)
Average temperature yesterday: 67 °F

Past Weeks' High & Low Weather Summary

 TemperatureHumidityPressure
High79 °F (Aug 30, 3:00 PM)100% (Aug 22, 7:00 AM)30.16 "Hg (Aug 22, 7:00 AM)
Low46 °F (Aug 28, 6:00 AM)45% (Aug 17, 5:00 PM)29.75 "Hg (Aug 26, 7:00 PM)
Average63 °F83%29.98 "Hg
* Reported Aug 17 9:00 AM — Sep 1 9:00 AM, Bad Radkersburg, Weather by CustomWeather, © 2014

Note: Actual official high and low records may vary slightly from our data, if they occured in-between our weather recording intervals... More about our weather records

Advertising

Bad Radkersburg weather history for previous 24 hours

 ConditionsComfort  
Time TempWeatherWind HumidityBarometerVisibility
9:00 AM
Sep 1
54 °FLight rain. Overcast.5 mph97%29.85 "Hg1 mi
8:00 AM54 °FRain. Overcast.3 mph97%29.85 "Hg1 mi
7:00 AM53 °FRain. Overcast.3 mph97%29.85 "Hg2 mi
6:00 AM54 °FRain. Overcast.5 mph97%29.86 "Hg2 mi
5:00 AM55 °FHeavy rain. Overcast.6 mph97%29.83 "Hg2 mi
4:00 AM57 °FCool.5 mph95%29.83 "HgN/A
3:00 AM59 °FCool.2 mph98%29.81 "HgN/A
2:00 AM59 °FCool.3 mph98%29.82 "HgN/A
1:00 AM59 °FCool.1 mph96%29.83 "HgN/A
12:00 AM59 °FCool.3 mph95%29.83 "HgN/A
11:00 PM
Aug 31
59 °FCool.6 mph95%29.83 "HgN/A
10:00 PM67 °FMild.2 mph86%29.82 "HgN/A
9:00 PM68 °FMild.2 mph86%29.83 "HgN/A
8:00 PM69 °FFog.1 mph83%29.82 "Hg5 mi
7:00 PM72 °FMild.1 mph68%29.83 "HgN/A
6:00 PM73 °FMild.1 mph66%29.84 "HgN/A
5:00 PM75 °FMild.1 mph62%29.85 "HgN/A
4:00 PM75 °FMild.2 mph62%29.88 "HgN/A
3:00 PM75 °FOvercast.1 mph61%29.90 "Hg6 mi
2:00 PM74 °FOvercast.1 mph66%29.93 "Hg6 mi
1:00 PM73 °FMild.1 mph68%29.95 "HgN/A
12:00 PM71 °FMild.1 mph66%29.97 "HgN/A
11:00 AM70 °FMild.1 mph69%29.98 "HgN/A
Weather by CustomWeather, © 2014

See weather overviewHow to use our weather pages